Regional Weather Roundup
Issued by NWS

Home | Current Version | Previous Version | Graphics & Text | Print | Product List | Glossary On
Versions: 1 2 3 4 5 6 7 8 9 10 11 12 13 14 15 16 17 18 19 20 21 22 23 24 25 26 27 28 29 30 31 32 33 34 35 36 37 38 39 40 41 42 43 44 45 46 47 48 49 50
000
ASUS45 KABQ 221701
RWRNM
WEATHER ROUNDUP FOR NEW MEXICO
NATIONAL WEATHER SERVICE ALBUQUERQUE NM
1100 AM MDT WED OCT 22 2014

NOTE: "FAIR" MEANS FEW OR NO CLOUDS BELOW 12,000 FEET AGL WITH NO
       SIGNIFICANT WEATHER OR OBSTRUCTIONS TO VISION.

      THIS PRODUCT IS RELEASED AS TWO VERSIONS.  ONE VERSION NEAR
      THE TOP OF THE HOUR CONTAINING PRELIMINARY DATA FROM ALBUQUERQUE
      AND OTHER STATIONS.  A FINAL VERSION WITH ADDITIONAL DATA IS
      ISSUED ABOUT 10 MINUTES AFTER THE HOUR.

NMZ501-503-504-510>518-221800-
NORTHWEST PLATEAU/NORTHCENTRAL MOUNTAINS

CITY           SKY/WX    TMP DP  RH WIND       PRES   REMARKS
FARMINGTON     SUNNY     59  44  57 SE7       30.19S
LOS ALAMOS     SUNNY     54  46  73 NE3       30.29S
SANTA FE       PTSUNNY   60  47  61 W7        30.24S
TAOS           MOSUNNY   55  43  62 NW3       30.27S
ANGEL FIRE     FAIR      54  38  54 SW14      30.30S

$$
NMZ402-403-502-505>509-221800-
WESTCENTRAL MOUNTAINS/SOUTHWEST MOUNTAINS

CITY           SKY/WX    TMP DP  RH WIND       PRES   REMARKS
GALLUP         SUNNY     58  46  64 W6        30.25S
SILVER CITY    SUNNY     63  52  67 CALM      30.24S

$$
NMZ407-409-411-412-221800-
SOUTHERN DESERTS

CITY           SKY/WX    TMP DP  RH WIND       PRES   REMARKS
LORDSBURG      FAIR      68  55  64 MISG      30.17S
DEMING         SUNNY     66  56  70 E6        30.18R
HOLLOMAN AFB   MOSUNNY   65  54  67 VRB2      30.17R
T OR C         SUNNY     64  52  64 SE6       30.18S

$$
NMZ519>523-221800-
CENTRAL VALLEYS/CENTRAL HIGHLANDS

CITY           SKY/WX    TMP DP  RH WIND       PRES   REMARKS
ALBUQUERQUE    MOSUNNY   61  50  67 S5        30.22S
DOUBLE EAGLE   MOSUNNY   59  48  67 CALM      30.24R
MORIARTY ARPT  FAIR      54  52  94 NW3       30.25S
CLINES CORNERS SUNNY     60  46  59 W16       30.24S
BELEN          FAIR      64  49  58 E3        30.21S
SOCORRO        FAIR      64  53  68 SE5       30.19F

$$
NMZ524>526-539-540-221800-
SOUTHCENTRAL MOUNTAINS

CITY           SKY/WX    TMP DP  RH WIND       PRES   REMARKS
RUIDOSO        SUNNY     57  46  67 MISG      30.28S

$$
NMZ527>531-221800-
NORTHEAST HIGHLANDS/NORTHEAST PLAINS

CITY           SKY/WX    TMP DP  RH WIND       PRES   REMARKS
LAS VEGAS      SUNNY     61  42  49 CALM      30.22S
RATON          SUNNY     61  41  47 E6        30.17S
CLAYTON        SUNNY     68  48  48 SW9       30.11S

$$
NMZ532>537-221800-
EASTCENTRAL PLAINS

CITY           SKY/WX    TMP DP  RH WIND       PRES   REMARKS
TUCUMCARI      SUNNY     70  53  54 SW18G26   30.10S
CANNON AFB     MOSUNNY   63  56  77 SW10      30.16F
CLOVIS AIRPORT CLOUDY    63  54  72 S10       30.19F

$$
NMZ028-029-538-221800-
SOUTHEAST PLAINS

CITY           SKY/WX    TMP DP  RH WIND       PRES   REMARKS
ROSWELL        PTSUNNY   66  59  78 S8        30.15R
CARLSBAD       CLOUDY    65  58  78 CALM      30.13S
HOBBS          PTSUNNY   68  59  73 S9        30.16S


$$



USA.gov is the U.S. government's official web portal to all federal, state and local government web resources and services.